星链-36164(STARLINK-36164)

导读 | 豆包AI

STARLINK-36164是美国SpaceX公司星链(Starlink)互联网星座的成员卫星,于2025年12月15日发射入轨。星链星座旨在为全球尤其是基础设施匮乏地区提供高速、低延迟的宽带互联网服务,该卫星入轨后将进一步扩展星链网络覆盖范围,助力提升星座整体服务能力,推动全球互联接入实现。

基本信息
目录编号:
67127
目录名称:
STARLINK-36164
国际标识:
2025-299AB
轨道中心:
EARTH
卫星名称:
星链-36164
卫星全名:
星链-36164(STARLINK-36164)
卫星状态:
在轨 (已飞行135 天)
发射日期:
2025-12-15 UTC
国别 :
美国 (US)
星等 :
--
轨道信息
数据来源 国际轨道数据
星历时间: 2026-04-28T17:49:08+0800
15小时前
查看轨道信息
半长轴: 6861.155km
偏心率: 0.0001156
轨道倾角: 42.997°
近地点辐角 241.670°
升交点赤经 247.898°
平近点角 118.404°
近地点: 482.224km
远地点: 483.812km
周期: 94.266分钟
每日圈数: 15.275906
详细信息
固有亮度:
5
最大亮度:
2.5
卫星平台:
Starlink V1.0
覆盖范围:
全球
运营商:
太空探索技术公司
运营商所在国:
美国
制造商(研发单位):
太空探索技术公司
制造商所在国:
美国
使用方式:
暂无
卫星简介
Starlink 计划是 SpaceX 推出的全球卫星互联网项目,通过发射低轨道卫星,为全球尤其是偏远地区提供高速、低延迟的互联网服务。自 2019 年起,Starlink 已部署数千颗卫星,旨在缩小全球数字鸿沟,推动互联网普及。该项目还为军事、航空等行业提供通信支持,带来广泛经济效益。
2D轨道图
3D轨道图
轨道高度分析图
轨道倾角分析图
轨道综合分析图
查看轨道综合分析图